Location: Bakov nad Jizerou
(50.4784°N, 14.9394°E)
Time: 04:11:06
(UTC+00:00)

Cosmos 1727 Rocket - Pass Details

Date: 29 October 2021
Orbit: 960 x 997 km, 82.9° (Epoch: 07 December)

Event Time Altitude Azimuth Distance (km) Brightness Sun altitude
Rises 04:15:47 0° 174° (S) 3,691 7.1 -14.8°
Reaches altitude 10° 04:18:20 10° 171° (S) 2,742 6.5 -14.4°
Maximum altitude 04:24:29 60° 93° (E) 1,116 4.7 -13.5°
Drops below altitude 10° 04:30:38 10° 16° (NNE) 2,735 6.5 -12.5°
Sets 04:33:10 0° 13° (NNE) 3,682 7.1 -12.1°
